Location: Navajo
(48.7922°N, 105.0603°W)
Time: 16:30:26
(UTC+00:00)

QB50P2 - Pass Details

Date: 28 June 2022
Orbit: 590 x 605 km, 97.9° (Epoch: 06 August)

Event Time Altitude Azimuth Distance (km) Brightness Sun altitude
Rises 07:36:56 0° 24° (NNE) 2,857 ? -17.5°
Reaches altitude 10° 07:39:27 10° 38° (NE) 1,951 ? -17.5°
Maximum altitude 07:42:57 25° 94° (E) 1,242 ? -17.4°
Enters shadow 07:44:59 17° 134° (SE) 1,522 ? -17.3°
